Home   Weather   Rankweil   Past weeks

Flag for Austria Past Weather in Rankweil, Vorarlberg, Austria — Yesterday and Last 2 Weeks

Now
19 °F

Cold.


Feels Like: 19 °F
Forecast: 19 / 40 °F
Wind: 1 mph from North

Location: Feldkirch

Current Time: Jan 22, 2017 at 3:41:08 pm

Latest Report: Jan 22, 2017 at 2:00 pm


Visibility: N/A

Pressure: 30.33 "Hg

Humidity: 94%

Dew Point: 17 °F

Location of RankweilLocation

Past Weather in Rankweil — Graph

°F

Rankweil Temperature Yesterday

Maximum temperature yesterday: 20 °F (at 2:00 pm)
Minimum temperature yesterday: 15 °F (at 6:00 am)
Average temperature yesterday: 17 °F

High & Low Weather Summary for the Past Weeks

 TemperatureHumidityPressure
High43 °F (Jan 13, 3:00 am)98% (Jan 12, 6:00 am)30.60 "Hg (Jan 12, 6:00 am)
Low6 °F (Jan 20, 6:00 am)60% (Jan 13, 5:00 am)29.47 "Hg (Jan 13, 2:00 am)
Average25 °F87%30.27 "Hg
* Reported Jan 7 2:00 pm — Jan 22 2:00 pm, Rankweil, Weather by CustomWeather, © 2017

Note: Actual official high and low records may vary slightly from our data, if they occured in-between our weather recording intervals... More about our weather records

Advertising

Rankweil Weather History for the Previous 24 Hours

Scroll right to see more
 ConditionsComfort  
Time TempWeatherWind HumidityBarometerVisibility
2:00 pm
Sun, Jan 22
19 °FCold.1 mph94%30.33 "HgN/A
1:00 pm19 °FCold.1 mph94%30.35 "HgN/A
12:00 pm18 °FCold.1 mph94%30.38 "HgN/A
11:00 am16 °FCold.1 mph94%30.40 "HgN/A
10:00 am16 °FLow clouds.1 mph97%30.40 "Hg1 mi
9:00 am16 °FCold.No wind93%30.40 "HgN/A
8:00 am15 °FCold.1 mph94%30.40 "HgN/A
7:00 am14 °FLow clouds.2 mph96%30.40 "Hg1 mi
6:00 am14 °FCold.1 mph93%30.41 "HgN/A
5:00 am16 °FCold.1 mph93%30.42 "HgN/A
4:00 am14 °FCold.2 mph93%30.43 "HgN/A
3:00 am15 °FCold.1 mph94%30.44 "HgN/A
2:00 am14 °FCold.1 mph92%30.45 "HgN/A
1:00 am15 °FCold.1 mph93%30.45 "HgN/A
12:00 am16 °FCold.1 mph93%30.46 "HgN/A
11:00 pm
Sat, Jan 21
16 °FCold.1 mph93%30.46 "HgN/A
10:00 pm17 °FCold.No wind93%30.46 "HgN/A
9:00 pm17 °FCold.1 mph94%30.46 "HgN/A
8:00 pm17 °FCold.1 mph93%30.47 "HgN/A
7:00 pm18 °FCold.No wind94%30.46 "HgN/A
6:00 pm18 °FCold.No wind94%30.46 "HgN/A
5:00 pm18 °FCold.2 mph93%30.46 "HgN/A
4:00 pm19 °FCold.1 mph92%30.46 "HgN/A
3:00 pm20 °FCold.1 mph92%30.45 "HgN/A
Weather by CustomWeather, © 2017

See weather overviewHow to use our weather pages